FW6944 Weather Reports


Display with metric or nautical units.
time (UTC)temp
F
wind
direction
speed
MPH
gust
MPH
rain 1hr
in
rain 24hr
in
rain mn
in
humidity
%
barometer
mb
20260906091701 68 111 0.0 0.0 0.00 0.00 0.00 91 995.5
20260906091154 68 111 0.0 0.0 0.00 0.00 0.00 91 995.6
20260906090649 68 111 0.0 1.0 0.00 0.00 0.00 91 995.6
20260906090143 69 111 0.0 3.0 0.00 0.00 0.00 91 995.8
20260906085637 69 111 1.0 3.0 0.00 0.00 0.00 91 995.8
20260906084624 69 127 0.0 3.0 0.00 0.00 0.00 90 995.7
20260906084119 69 136 0.0 2.0 0.00 0.00 0.00 90 995.5
20260906083612 69 136 0.0 2.0 0.00 0.00 0.00 90 995.6
20260906082601 69 137 0.0 3.0 0.00 0.00 0.00 90 995.8
20260906082055 69 137 1.0 5.0 0.00 0.00 0.00 90 995.7
20260906081549 69 152 2.0 7.0 0.00 0.00 0.00 90 995.7
20260906081043 69 169 1.0 7.0 0.00 0.00 0.00 90 995.7
20260906080537 69 111 0.0 2.0 0.00 0.00 0.00 89 995.7
20260906080031 69 108 0.0 2.0 0.00 0.00 0.00 89 995.9
20260906075524 70 102 0.0 0.0 0.00 0.00 0.00 88 995.8
20260906075019 70 102 0.0 1.0 0.00 0.00 0.00 88 995.9
20260906074513 70 102 0.0 3.0 0.00 0.00 0.00 88 995.9
20260906074007 70 102 1.0 4.0 0.00 0.00 0.00 88 995.8
20260906073501 70 164 1.0 7.0 0.00 0.00 0.00 88 995.8
20260906072955 70 102 2.0 7.0 0.00 0.00 0.00 88 995.8
20260906071943 70 121 3.0 7.0 0.00 0.00 0.00 88 995.7
20260906070930 71 103 3.0 8.0 0.00 0.00 0.00 88 995.7
20260906070425 71 92 3.0 8.0 0.00 0.00 0.00 87 995.7
20260906065919 71 108 3.0 7.0 0.00 0.00 0.00 87 995.8
20260906065413 71 105 4.0 8.0 0.00 0.00 0.00 87 995.9
20260906064907 71 94 3.0 8.0 0.00 0.00 0.00 87 995.9
20260906064401 71 84 3.0 9.0 0.00 0.00 0.00 87 995.9
20260906063855 71 108 3.0 9.0 0.00 0.00 0.00 87 996.1
20260906062842 72 163 3.0 9.0 0.00 0.00 0.00 88 996.0
20260906062337 72 104 3.0 9.0 0.00 0.00 0.00 88 996.1
20260906060819 72 102 1.0 4.0 0.00 0.00 0.00 88 996.0
20260906055816 73 115 3.0 9.0 0.00 0.00 0.00 88 996.0
20260906055317 73 137 2.0 9.0 0.00 0.00 0.00 88 996.0
20260906054315 73 90 3.0 9.0 0.00 0.00 0.00 88 996.0
20260906053815 73 115 3.0 9.0 0.00 0.00 0.00 88 995.9
20260906052815 73 103 1.0 4.0 0.00 0.00 0.00 88 996.0
20260906052315 73 65 0.0 4.0 0.00 0.00 0.00 88 995.9
20260906051815 74 134 1.0 4.0 0.00 0.00 0.00 87 995.8
20260906051315 74 107 1.0 4.0 0.00 0.00 0.00 87 995.7
20260906050813 74 99 1.0 4.0 0.00 0.00 0.00 87 995.6
20260906050312 74 81 1.0 4.0 0.00 0.00 0.00 87 995.6
20260906045811 74 97 2.0 4.0 0.00 0.00 0.00 87 995.6
20260906045311 74 65 1.0 4.0 0.00 0.00 0.00 87 995.6
20260906044811 74 63 1.0 3.0 0.00 0.00 0.00 87 995.6
20260906044311 74 71 1.0 3.0 0.00 0.00 0.00 87 995.6
20260906043804 74 44 1.0 3.0 0.00 0.00 0.00 86 995.6
20260906043259 74 27 0.0 2.0 0.00 0.00 0.00 86 995.6
20260906042752 75 27 0.0 3.0 0.00 0.00 0.00 86 995.7
20260906041740 75 18 2.0 4.0 0.00 0.00 0.00 86 995.6
20260906041234 75 16 2.0 4.0 0.00 0.00 0.00 85 995.5
20260906040728 75 17 2.0 4.0 0.00 0.00 0.00 85 995.4
20260906040223 75 38 2.0 4.0 0.00 0.00 0.00 85 995.3
20260906035716 75 36 1.0 4.0 0.00 0.00 0.00 85 995.3
20260906035211 75 55 1.0 6.0 0.00 0.00 0.00 85 995.2
20260906034705 75 67 1.0 6.0 0.00 0.00 0.00 85 995.0
20260906034159 75 111 1.0 3.0 0.00 0.00 0.00 85 994.7
20260906033652 75 80 1.0 4.0 0.00 0.00 0.00 85 994.8
20260906033146 75 88 1.0 4.0 0.00 0.00 0.00 85 994.8
20260906032641 75 103 1.0 4.0 0.00 0.00 0.00 85 994.7
20260906031629 76 92 1.0 3.0 0.00 0.00 0.00 84 994.6
20260906031122 76 38 1.0 3.0 0.00 0.00 0.00 84 994.7
20260906030617 76 38 1.0 3.0 0.00 0.00 0.00 84 994.7
20260906030111 76 84 1.0 3.0 0.00 0.00 0.00 84 994.6
20260906025604 76 56 0.0 3.0 0.00 0.00 0.00 84 994.6
20260906025059 76 56 0.0 3.0 0.00 0.00 0.00 83 994.5
20260906024553 76 55 1.0 3.0 0.00 0.00 0.00 83 994.5
20260906024047 76 56 1.0 3.0 0.00 0.00 0.00 83 994.6
20260906023540 76 71 0.0 3.0 0.00 0.00 0.00 83 994.4
20260906022022 77 70 1.0 5.0 0.00 0.00 0.00 82 994.1
20260906021010 77 84 2.0 4.0 0.00 0.00 0.00 82 993.9
20260906020504 77 103 1.0 6.0 0.00 0.00 0.00 82 993.8
20260906015958 77 106 1.0 7.0 0.00 0.00 0.00 82 993.7
20260906015452 77 90 2.0 7.0 0.00 0.00 0.00 82 993.6
20260906014947 77 98 2.0 4.0 0.00 0.00 0.00 82 993.6
20260906014440 77 105 2.0 6.0 0.00 0.00 0.00 82 993.7
20260906013935 77 105 2.0 7.0 0.00 0.00 0.00 82 993.6
20260906013429 77 109 2.0 7.0 0.00 0.00 0.00 82 993.5
20260906012922 77 84 2.0 5.0 0.00 0.00 0.00 82 993.3
20260906012417 77 68 1.0 5.0 0.00 0.00 0.00 82 993.4
20260906011911 77 78 1.0 4.0 0.00 0.00 0.00 82 993.4
20260906010859 78 97 2.0 4.0 0.00 0.00 0.00 82 993.0
20260906010352 78 109 1.0 6.0 0.00 0.00 0.00 82 993.1
20260906005847 78 97 1.0 6.0 0.00 0.00 0.00 82 992.9
20260906005340 78 147 2.0 4.0 0.00 0.00 0.00 82 992.8
20260906004834 78 107 2.0 4.0 0.00 0.00 0.00 82 992.8
20260906004329 78 88 1.0 4.0 0.00 0.00 0.00 81 992.9
20260906003822 78 40 1.0 2.0 0.00 0.00 0.00 81 992.9
20260906003317 78 40 1.0 3.0 0.00 0.00 0.00 81 993.0
20260906002811 78 36 1.0 3.0 0.00 0.00 0.00 80 993.0
20260906002306 79 32 1.0 3.0 0.00 0.00 0.00 80 993.1
20260906001252 79 18 1.0 3.0 0.00 0.00 0.00 80 993.1
20260906000746 79 18 1.0 4.0 0.00 0.00 0.00 79 993.2
20260906000241 79 11 2.0 4.0 0.00 0.00 0.00 79 993.2
20260905235734 79 34 2.0 4.0 0.00 0.00 0.00 79 993.2
20260905234733 79 30 3.0 8.0 0.00 0.00 0.00 79 993.3
20260905234232 79 103 4.0 8.0 0.00 0.00 0.00 78 993.2
20260905233733 79 111 4.0 8.0 0.00 0.00 0.00 78 993.2
20260905233232 79 72 2.0 7.0 0.00 0.00 0.00 78 993.3
20260905232733 80 94 2.0 7.0 0.00 0.00 0.00 78 993.3
20260905232233 80 55 3.0 8.0 0.00 0.00 0.00 77 993.3
20260905231732 80 102 4.0 8.0 0.00 0.00 0.00 77 993.3
20260905231232 80 49 3.0 9.0 0.00 0.01 0.00 77 993.3
20260905230233 80 26 3.0 10.0 0.00 0.01 0.00 76 993.3
20260905225732 80 98 3.0 10.0 0.00 0.01 0.00 76 993.3
20260905224732 81 101 4.0 10.0 0.00 0.01 0.00 76 993.3
20260905224232 81 36 5.0 11.0 0.00 0.01 0.00 76 993.3
20260905223733 81 96 6.0 11.0 0.00 0.01 0.00 76 993.4
20260905222732 83 101 5.0 11.0 0.00 0.01 0.00 74 993.3
20260905222232 83 114 6.0 11.0 0.00 0.01 0.00 74 993.2
20260905221732 83 36 5.0 11.0 0.00 0.01 0.00 74 993.2
20260905221232 83 123 6.0 11.0 0.00 0.01 0.00 75 993.1
20260905220733 83 114 5.0 11.0 0.00 0.01 0.00 75 993.2
20260905220232 84 134 5.0 11.0 0.00 0.01 0.00 74 993.2
20260905215233 84 109 3.0 9.0 0.00 0.01 0.00 74 993.3
20260905214730 83 74 3.0 9.0 0.00 0.01 0.00 74 993.2
20260905214230 83 43 4.0 11.0 0.00 0.01 0.00 74 993.3
20260905213729 83 85 4.0 11.0 0.00 0.01 0.00 75 993.3
20260905213226 84 83 3.0 8.0 0.00 0.01 0.00 75 993.2
20260905212726 83 71 3.0 8.0 0.00 0.01 0.00 75 993.2
20260905211726 84 103 4.0 10.0 0.00 0.01 0.00 74 993.0
20260905211224 84 86 3.0 6.0 0.00 0.01 0.00 75 993.2
20260905210722 83 38 4.0 10.0 0.00 0.01 0.00 77 993.1
20260905210222 83 26 5.0 10.0 0.00 0.01 0.00 77 993.2
20260905205220 83 89 4.0 9.0 0.00 0.01 0.00 76 993.1
20260905204723 84 72 4.0 8.0 0.00 0.01 0.00 76 993.2
20260905204220 83 302 4.0 9.0 0.00 0.01 0.00 78 993.1
20260905203719 83 0 4.0 12.0 0.00 0.01 0.00 78 993.2
20260905203218 83 33 4.0 12.0 0.00 0.01 0.00 78 993.2
20260905202219 83 73 3.0 7.0 0.00 0.01 0.00 79 993.1
20260905201718 83 44 3.0 9.0 0.00 0.01 0.00 79 993.3
20260905201216 83 66 4.0 9.0 0.00 0.01 0.00 78 993.4
20260905200716 83 96 3.0 9.0 0.00 0.01 0.00 79 993.5
20260905200216 83 11 3.0 8.0 0.00 0.01 0.00 78 993.5
20260905195215 83 36 4.0 8.0 0.00 0.01 0.00 79 993.7
20260905194709 83 86 3.0 9.0 0.00 0.01 0.00 78 993.6
20260905194201 84 52 2.0 9.0 0.00 0.01 0.00 77 993.6
20260905193656 83 23 2.0 10.0 0.00 0.01 0.00 79 993.6
20260905193149 82 53 4.0 10.0 0.00 0.01 0.00 79 993.7
20260905192644 82 22 4.0 11.0 0.00 0.01 0.00 82 993.8
20260905192137 81 16 4.0 11.0 0.00 0.01 0.00 83 993.6
20260905191632 81 35 5.0 10.0 0.00 0.01 0.00 84 993.7
20260905191126 81 42 5.0 10.0 0.00 0.01 0.00 84 993.8
20260905190619 80 47 4.0 8.0 0.00 0.01 0.00 84 993.8
20260905190114 80 80 3.0 9.0 0.00 0.01 0.00 84 993.8
20260905185607 80 91 3.0 9.0 0.00 0.01 0.00 84 993.9
20260905185102 80 355 3.0 7.0 0.00 0.01 0.00 84 994.0
20260905184555 80 40 4.0 11.0 0.00 0.01 0.00 85 994.1
20260905184049 80 29 4.0 11.0 0.00 0.01 0.00 85 993.9
20260905183544 80 43 3.0 7.0 0.00 0.01 0.00 85 994.0
20260905183037 80 55 4.0 8.0 0.00 0.01 0.00 85 993.9
20260905182532 80 58 4.0 11.0 0.00 0.01 0.00 85 994.0
20260905182025 80 31 4.0 11.0 0.00 0.01 0.00 85 993.8
20260905181520 80 29 4.0 11.0 0.00 0.01 0.00 85 993.8
20260905175456 80 28 3.0 8.0 0.00 0.01 0.00 84 993.9
20260905174949 80 67 3.0 8.0 0.00 0.01 0.00 85 993.8
20260905174444 80 30 3.0 9.0 0.00 0.01 0.00 85 993.9
20260905173938 80 74 4.0 9.0 0.00 0.01 0.00 85 994.0
20260905173431 79 109 4.0 10.0 0.00 0.01 0.00 85 993.9
20260905172925 79 78 5.0 12.0 0.00 0.01 0.00 86 994.0
20260905171913 79 86 5.0 10.0 0.00 0.01 0.00 85 993.9
20260905171407 80 9 4.0 9.0 0.00 0.01 0.00 85 994.0
20260905170901 80 91 3.0 8.0 0.00 0.01 0.00 85 994.1
20260905170355 80 5 3.0 6.0 0.00 0.01 0.00 84 994.2
20260905165850 80 53 4.0 9.0 0.00 0.01 0.00 84 994.3
20260905165344 80 20 4.0 9.0 0.00 0.01 0.00 84 994.3
20260905164837 80 121 2.0 8.0 0.00 0.03 0.00 83 994.4
20260905164332 80 94 2.0 7.0 0.00 0.03 0.00 83 994.4
20260905163826 80 92 3.0 8.0 0.00 0.03 0.00 84 994.2
20260905163319 80 9 3.0 9.0 0.00 0.03 0.00 83 994.2
20260905162307 80 87 4.0 10.0 0.00 0.03 0.00 83 994.2
20260905161801 80 101 3.0 10.0 0.00 0.03 0.00 83 994.2
20260905161255 80 76 4.0 8.0 0.00 0.03 0.00 83 994.2
20260905160244 80 33 4.0 9.0 0.00 0.03 0.00 84 994.0
20260905155743 80 101 4.0 10.0 0.00 0.03 0.00 83 994.0
20260905155242 81 82 4.0 10.0 0.00 0.03 0.00 82 994.0
20260905154242 80 42 4.0 9.0 0.00 0.03 0.00 83 993.8
20260905153241 80 11 4.0 10.0 0.00 0.03 0.00 84 993.8
20260905152241 80 79 5.0 12.0 0.00 0.03 0.00 84 993.7
20260905151239 80 40 4.0 10.0 0.00 0.03 0.00 85 993.7
20260905150239 79 5 4.0 10.0 0.00 0.03 0.00 85 993.4
20260905145739 79 34 4.0 10.0 0.00 0.03 0.00 85 993.4
20260905145242 78 11 4.0 9.0 0.00 0.03 0.00 85 993.5
20260905144742 78 10 4.0 9.0 0.00 0.03 0.00 86 993.4
20260905143740 78 0 4.0 9.0 0.00 0.03 0.00 87 993.3
20260905143240 77 52 4.0 10.0 0.00 0.03 0.00 87 993.3
20260905142740 77 19 5.0 10.0 0.00 0.03 0.00 88 993.3
20260905142237 77 15 4.0 10.0 0.00 0.03 0.00 90 993.3
20260905141738 76 22 4.0 9.0 0.00 0.03 0.00 92 993.2
20260905141237 76 5 4.0 9.0 0.00 0.03 0.00 93 993.2
20260905140737 75 0 4.0 9.0 0.00 0.03 0.00 94 993.2
20260905140238 75 349 3.0 8.0 0.00 0.03 0.00 95 993.1
20260905135737 75 5 3.0 6.0 0.00 0.03 0.00 96 993.0
20260905135234 75 16 2.0 6.0 0.00 0.03 0.00 97 993.0
20260905134733 74 5 2.0 6.0 0.00 0.03 0.00 97 992.8
20260905134234 74 277 1.0 3.0 0.00 0.03 0.00 97 992.8
20260905133733 74 279 1.0 3.0 0.00 0.03 0.00 97 992.6
20260905132733 74 348 0.0 3.0 0.00 0.03 0.00 97 992.5
20260905132233 73 348 1.0 3.0 0.00 0.03 0.00 98 992.3
20260905131733 73 18 1.0 5.0 0.00 0.03 0.00 98 992.4
20260905131233 73 15 2.0 5.0 0.00 0.03 0.00 97 992.6
20260905130734 73 28 2.0 4.0 0.00 0.03 0.00 97 992.5
20260905130233 73 0 1.0 4.0 0.00 0.03 0.00 98 992.6
20260905125733 73 0 1.0 3.0 0.00 0.03 0.00 98 992.6
20260905125233 72 340 2.0 5.0 0.00 0.03 0.00 97 992.4
20260905124733 72 9 1.0 5.0 0.00 0.03 0.00 97 992.4
20260905124234 72 13 0.0 0.0 0.00 0.03 0.00 98 992.4
20260905123734 72 13 0.0 0.0 0.00 0.03 0.00 97 992.5
20260905123233 72 16 0.0 0.0 0.00 0.03 0.00 97 992.3
20260905122735 71 14 0.0 0.0 0.00 0.03 0.00 98 992.0
20260905121733 71 14 0.0 0.0 0.00 0.03 0.00 97 991.8
20260905121231 71 14 0.0 0.0 0.00 0.03 0.00 97 991.9
20260905120731 71 15 0.0 2.0 0.00 0.03 0.00 97 991.9
20260905120231 71 15 1.0 3.0 0.00 0.03 0.00 97 992.0
20260905115731 71 15 2.0 3.0 0.00 0.03 0.00 97 991.9
20260905115224 71 15 2.0 3.0 0.00 0.03 0.00 97 992.0
20260905114719 71 11 2.0 3.0 0.00 0.03 0.00 97 992.1
20260905113707 71 331 1.0 3.0 0.00 0.03 0.00 97 992.0
20260905113200 71 318 1.0 2.0 0.00 0.03 0.00 97 991.8
20260905112654 72 316 1.0 2.0 0.00 0.03 0.00 97 991.7
20260905112153 72 316 0.0 0.0 0.00 0.03 0.00 97 991.5
20260905111639 72 316 0.0 0.0 0.00 0.03 0.00 97 991.3
20260905111132 72 317 0.0 0.0 0.00 0.03 0.00 97 991.2
20260905110627 72 315 0.0 0.0 0.00 0.03 0.00 97 991.2
20260905110121 71 316 0.0 0.0 0.00 0.03 0.00 97 991.2
20260905105615 71 316 0.0 0.0 0.00 0.03 0.00 97 991.1
20260905105109 71 349 0.0 1.0 0.00 0.03 0.00 97 991.1
20260905104603 71 349 1.0 3.0 0.00 0.03 0.00 97 991.1
20260905104057 71 5 2.0 5.0 0.00 0.03 0.00 97 991.1
20260905103551 71 0 2.0 5.0 0.00 0.03 0.00 97 991.0
20260905103045 71 11 1.0 5.0 0.00 0.03 0.00 97 990.9
20260905102538 71 309 0.0 0.0 0.00 0.03 0.00 96 990.9
20260905102033 71 309 0.0 0.0 0.00 0.03 0.00 96 991.0
20260905100514 71 310 0.0 0.0 0.00 0.03 0.00 96 990.9
20260905100009 71 310 0.0 0.0 0.00 0.03 0.00 96 990.9
20260905095502 71 310 0.0 0.0 0.00 0.03 0.00 96 991.0
20260905094957 71 310 0.0 0.0 0.00 0.03 0.00 96 991.0
20260905094450 71 311 0.0 0.0 0.00 0.03 0.00 96 991.0
20260905093945 71 311 0.0 0.0 0.00 0.03 0.00 96 991.1
20260905093439 71 311 0.0 0.0 0.00 0.03 0.00 96 990.9
20260905092932 72 311 0.0 0.0 0.00 0.03 0.00 96 991.0